TITAN 3C TRANSTAGE DEB, 38690

Orbit data source: Space-Track

TITAN 3C TRANSTAGE DEB, 38690 is space debris in GEO originally from a launch on Thu, 26 Sep 1968 UTC launched from the Air Force Eastern Test Range (AFETR). Debris objects in space refer to the collection of defunct objects orbiting the Earth. Examples of debris include non-operational satellites, rocket bodies, and fragments generated from explosions, collisions, or faulty payload assembly.

Not visible in the next 10 days
Identifier
38690, 1968-081Q
Orbit
GEO
Country
Flag of USUS
Related business
Manufacturer
Unknown
Mission
Spacecraft
Bus & Motor
Unknown
Mass
Unknown
Launch date (UTC)
1968-09-26 (57 years ago)
Launch vehicle
Unknown
Launch site
Air Force Eastern Test Range (AFETR)
Object type
Payload
Rocket body
Debris
Shape & HBR
Unknown shape, 1.1 m
Radar Cross Section
Small (<0.1 m²)

Expand to show TLE details & history
Last TLE update: 13 hours ago

TLE from 13 hours ago
0 TITAN 3C TRANSTAGE DEB
1 38690U 68081Q   25292.00860007 -.00000322  00000-0  00000-0 0  9998
2 38690   1.7032   5.0835 0250061 336.5900  21.8880  0.99330317 48095
Epoch: 2025-10-19T00:12Z
TLE epoch observation values (Epoch: 2025-10-19T00:12:23.046Z)
Latitude
-0.00001°
Longitude
-26.20264°
Altitude
35,067.909 km
Speed
3.137 km/s
True Right ascension
00h 18m 29s
True Declination
0° 00' 00"
Sunlit
Object was in daylight at epoch
Visualization orbit readout
Latitude
Unknown
Longitude
Unknown
Altitude
Unknown
Speed
Unknown
Apparent Right ascension
Unknown
Apparent Declination
Unknown
Sunlit
N/A
Visualization observer readout
Local Sidereal Time
07:45:05
Azimuth
Unknown
Elevation
Unknown
Doppler factor
Unknown
Orbital elements
Apogee altitude
37,114.723 km
Perigee altitude
34,992.615 km
Semi-major axis
42,431.806 km
Eccentricity
0.02501
Inclination
1.7032°
RAAN
5.0835°
Arg. of periapsis
336.59°
True anomaly
22.98804°
Mean anomaly
21.888°
Eccentric anomaly
22.43478°
Mean motion
0.24832 °/min
Orbital period
1,449.76 mins
BSTAR
0
Loading maneuver chart data...
Computing Atmospheric mass density...

Documentation

Showing up to 5 results
|